Location: Hyderabad
(17.3833°N, 78.4667°E)
Time: 10:01:36
(UTC+05:30)

H-2A R/B - Pass Details

Date: 24 December 2017
Orbit: 249 x 33046 km, 28.4° (Epoch: 20 January)

Event Time Altitude Azimuth Distance (km) Brightness Sun altitude
Rises 01:02:12 0° 287° (WNW) 11,431 7.9 -77.5°
Reaches altitude 10° 01:08:42 10° 289° (WNW) 12,155 7.9 -76.2°
Enters shadow 01:44:11 39° 294° (WNW) 17,622 8.4 -68.4°
Exits shadow 03:13:50 52° 292° (WNW) 28,837 9.3 -47.9°
Drops below altitude 10° 09:46:36 10° 211° (SSW) 7,580 7.4 35.3°
Sets 09:54:25 0° 186° (S) 6,074 7.1 36.6°
